Date String (YYYY-MM-DD hh:mm:ss) UTC,Instrument flags,absolute air pressure of the measurement (hPa),sample flow rate (lpm),inlet stack bypass flow (lpm),air temperature of the measurement (°C),ambient temperature measured by the external sensor (°C),aerosol sample conditioner tube jacket temperature (°C),OPC LED temperature (°C),internal box temperature (°C),relative humidity of the measurement (%),span deviation,mass concentration of particles derived from Lorenz-Mie calculation of OPC scattering (μg/m³),mass concentration of particles derived from Lorenz-Mie calculation of OPC scattering (μg/m³),mass concentration of particles derived from Lorenz-Mie calculation of OPC scattering (μg/m³)
DateTimeUTC,F1_M11,P_M11,Q1_M11,Q2_M11,T1_M11,T2_M11,T3_M11,T4_M11,T5_M11,U1_M11,ZSPAN_M11,X0_M11,X2_M11,X1_M11
2024-02-08 00:00:00,SystemResetWarning,0810.1,4.99,000.00,020.6,019.9,000.0,028.8,022.2,13.1,0000.0,0002.34,0000.38,0000.24
2024-02-08 00:01:00,SystemResetWarning,0810.1,5.00,000.00,020.6,019.9,000.0,028.8,022.2,12.9,0000.0,0003.28,0000.40,0000.24
2024-02-08 00:02:00,SystemResetWarning,0810.0,5.00,000.00,020.6,019.9,000.0,028.8,022.2,13.2,0000.0,0002.80,0000.40,0000.24
2024-02-08 00:03:00,SystemResetWarning,0810.1,5.00,000.00,020.6,019.9,000.0,028.8,022.1,13.5,0000.0,0002.62,0000.40,0000.24
2024-02-08 00:04:00,SystemResetWarning,0810.1,5.00,000.00,020.6,019.9,000.0,028.8,022.2,13.2,0000.0,0002.64,0000.40,0000.24
2024-02-08 00:05:00,SystemResetWarning,0810.1,5.00,000.00,020.6,019.9,000.0,028.8,022.2,12.8,0000.0,0002.66,0000.41,0000.24
2024-02-08 00:06:00,SystemResetWarning,0810.1,5.01,000.00,020.6,019.9,000.0,028.8,022.2,13.0,0000.0,0002.68,0000.42,0000.25
2024-02-08 00:07:00,SystemResetWarning,0810.2,5.00,000.00,020.6,019.9,000.0,028.8,022.2,13.4,0000.0,0002.44,0000.39,0000.24
2024-02-08 00:08:00,SystemResetWarning,0810.3,5.00,000.00,020.6,019.8,000.0,028.8,022.2,14.2,0000.0,0002.27,0000.38,0000.24
2024-02-08 00:09:00,SystemResetWarning,0810.0,5.00,000.00,020.6,019.8,000.0,028.8,022.2,13.4,0000.0,0003.63,0000.41,0000.24
2024-02-08 00:10:00,SystemResetWarning,0810.0,5.00,000.00,020.6,019.8,000.0,028.8,022.2,12.9,0000.0,0005.40,0000.41,0000.24
2024-02-08 00:11:00,SystemResetWarning,0810.0,5.00,000.00,020.5,019.7,000.0,028.8,022.2,13.2,0000.0,0004.99,0000.41,0000.24
2024-02-08 00:12:00,SystemResetWarning,0810.1,5.00,000.00,020.5,019.7,000.0,028.8,022.2,12.7,0000.0,0003.98,0000.39,0000.24
2024-02-08 00:13:00,SystemResetWarning,0810.2,5.00,000.00,020.5,019.7,000.0,028.8,022.2,13.5,0000.0,0003.97,0000.40,0000.23
2024-02-08 00:14:00,SystemResetWarning,0810.2,5.01,000.00,020.5,019.7,000.0,028.8,022.2,13.8,0000.0,0003.99,0000.39,0000.22
2024-02-08 00:15:00,SystemResetWarning,0810.4,5.00,000.00,020.5,019.7,000.0,028.8,022.1,13.8,0000.0,0003.99,0000.39,0000.21
2024-02-08 00:16:00,SystemResetWarning,0810.4,5.00,000.00,020.5,019.7,000.0,028.8,022.1,14.0,0000.0,0003.95,0000.37,0000.21
2024-02-08 00:17:00,SystemResetWarning,0810.4,4.99,000.00,020.5,019.7,000.0,028.8,022.1,14.4,0000.0,0003.93,0000.35,0000.21
2024-02-08 00:18:00,SystemResetWarning,0810.3,5.00,000.00,020.5,019.7,000.0,028.8,022.1,14.6,0000.0,0003.93,0000.35,0000.21
2024-02-08 00:19:00,SystemResetWarning,0810.2,5.00,000.00,020.5,019.7,000.0,028.8,022.1,13.4,0000.0,0003.90,0000.34,0000.20
2024-02-08 00:20:00,SystemResetWarning,0810.3,5.00,000.00,020.5,019.7,000.0,028.8,022.1,13.0,0000.0,0003.03,0000.31,0000.20
2024-02-08 00:21:00,SystemResetWarning,0810.5,5.00,000.00,020.5,019.7,000.0,028.8,022.1,13.1,0000.0,0000.62,0000.31,0000.20
2024-02-08 00:22:00,SystemResetWarning,0810.5,5.00,000.00,020.4,019.6,000.0,028.8,022.1,14.1,0000.0,0000.64,0000.31,0000.20
2024-02-08 00:23:00,SystemResetWarning,0810.6,5.00,000.00,020.4,019.6,000.0,028.8,022.1,13.6,0000.0,0000.61,0000.32,0000.20
2024-02-08 00:24:00,SystemResetWarning,0810.5,5.00,000.00,020.4,019.6,000.0,028.8,022.0,14.4,0000.0,0001.13,0000.33,0000.20
2024-02-08 00:25:00,SystemResetWarning,0810.6,5.00,000.00,020.4,019.6,000.0,028.7,022.0,13.7,0000.0,0001.55,0000.31,0000.21
2024-02-08 00:26:00,SystemResetWarning,0810.6,5.00,000.00,020.4,019.6,000.0,028.7,022.0,13.5,0000.0,0001.52,0000.30,0000.21
2024-02-08 00:27:00,SystemResetWarning,0810.7,5.00,000.00,020.4,019.6,000.0,028.7,022.0,13.8,0000.0,0001.51,0000.29,0000.20
2024-02-08 00:28:00,SystemResetWarning,0810.6,5.01,000.00,020.4,019.6,000.0,028.7,022.0,13.7,0000.0,0001.61,0000.31,0000.20
2024-02-08 00:29:00,SystemResetWarning,0810.6,5.00,000.00,020.4,019.6,000.0,028.7,021.9,14.0,0000.0,0001.61,0000.31,0000.20
2024-02-08 00:30:00,SystemResetWarning,0810.6,5.00,000.00,020.4,019.6,000.0,028.7,021.9,13.3,0000.0,0002.24,0000.33,0000.20
2024-02-08 00:31:00,SystemResetWarning,0810.6,5.00,000.00,020.4,019.6,000.0,028.7,022.0,13.1,0000.0,0002.45,0000.34,0000.19
2024-02-08 00:32:00,SystemResetWarning,0810.5,5.00,000.00,020.3,019.6,000.0,028.7,022.0,12.1,0000.0,0002.49,0000.35,0000.18
2024-02-08 00:33:00,SystemResetWarning,0810.3,5.00,000.00,020.3,019.6,000.0,028.7,022.0,12.4,0000.0,0002.56,0000.38,0000.18
2024-02-08 00:34:00,SystemResetWarning,0810.4,5.00,000.00,020.3,019.6,000.0,028.7,021.9,12.5,0000.0,0002.63,0000.37,0000.18
2024-02-08 00:35:00,SystemResetWarning,0810.5,5.00,000.00,020.3,019.5,000.0,028.7,021.9,13.3,0000.0,0002.04,0000.36,0000.19
2024-02-08 00:36:00,SystemResetWarning,0810.6,5.00,000.00,020.3,019.4,000.0,028.6,021.9,13.1,0000.0,0001.63,0000.37,0000.18
2024-02-08 00:37:00,SystemResetWarning,0810.7,5.00,000.00,020.3,019.4,000.0,028.6,021.9,12.9,0000.0,0001.63,0000.37,0000.18
2024-02-08 00:38:00,SystemResetWarning,0810.7,5.00,000.00,020.3,019.4,000.0,028.6,021.9,13.3,0000.0,0001.63,0000.38,0000.19
2024-02-08 00:39:00,SystemResetWarning,0810.7,5.00,000.00,020.3,019.4,000.0,028.6,021.9,13.5,0000.0,0001.55,0000.37,0000.20
2024-02-08 00:40:00,SystemResetWarning,0810.7,5.00,000.00,020.3,019.4,000.0,028.6,021.9,13.4,0000.0,0001.74,0000.40,0000.21
2024-02-08 00:41:00,SystemResetWarning,0810.8,5.00,000.00,020.2,019.4,000.0,028.6,021.9,13.1,0000.0,0001.12,0000.40,0000.21
2024-02-08 00:42:00,SystemResetWarning,0810.8,5.00,000.00,020.2,019.4,000.0,028.6,021.9,13.4,0000.0,0000.98,0000.40,0000.22
2024-02-08 00:43:00,SystemResetWarning,0810.8,5.00,000.00,020.2,019.4,000.0,028.6,021.9,13.7,0000.0,0000.96,0000.41,0000.22
2024-02-08 00:44:00,SystemResetWarning,0810.7,5.00,000.00,020.2,019.4,000.0,028.6,021.9,13.5,0000.0,0000.90,0000.38,0000.23
2024-02-08 00:45:00,SystemResetWarning,0810.8,4.99,000.00,020.2,019.4,000.0,028.6,021.8,13.0,0000.0,0000.81,0000.38,0000.24
2024-02-08 00:46:00,SystemResetWarning,0810.8,5.00,000.00,020.2,019.4,000.0,028.5,021.8,12.8,0000.0,0000.82,0000.39,0000.23
2024-02-08 00:47:00,SystemResetWarning,0810.8,5.01,000.00,020.2,019.4,000.0,028.5,021.7,13.3,0000.0,0000.79,0000.38,0000.23
2024-02-08 00:48:00,SystemResetWarning,0810.8,5.01,000.00,020.2,019.4,000.0,028.5,021.7,13.5,0000.0,0000.80,0000.37,0000.23
2024-02-08 00:49:00,SystemResetWarning,0810.9,5.00,000.00,020.2,019.4,000.0,028.5,021.7,13.6,0000.0,0000.82,0000.38,0000.23
2024-02-08 00:50:00,SystemResetWarning,0811.0,4.98,000.00,020.2,019.4,000.0,028.5,021.7,13.6,0000.0,0001.04,0000.39,0000.22
2024-02-08 00:51:00,SystemResetWarning,0810.9,5.00,000.00,020.2,019.4,000.0,028.5,021.7,13.5,0000.0,0001.36,0000.36,0000.21
2024-02-08 00:52:00,SystemResetWarning,0811.0,5.01,000.00,020.2,019.4,000.0,028.5,021.7,12.7,0000.0,0002.24,0000.36,0000.21
2024-02-08 00:53:00,SystemResetWarning,0810.9,5.01,000.00,020.2,019.4,000.0,028.5,021.7,12.8,0000.0,0002.34,0000.35,0000.21
2024-02-08 00:54:00,SystemResetWarning,0810.9,5.01,000.00,020.2,019.4,000.0,028.5,021.7,12.4,0000.0,0002.30,0000.32,0000.21
2024-02-08 00:55:00,SystemResetWarning,0810.9,5.00,000.00,020.1,019.4,000.0,028.4,021.7,12.4,0000.0,0002.31,0000.33,0000.20
2024-02-08 00:56:00,SystemResetWarning,0810.9,4.99,000.00,020.1,019.4,000.0,028.4,021.7,12.7,0000.0,0002.28,0000.32,0000.19
2024-02-08 00:57:00,SystemResetWarning,0810.9,4.99,000.00,020.1,019.4,000.0,028.4,021.7,12.8,0000.0,0002.29,0000.32,0000.19
2024-02-08 00:58:00,SystemResetWarning,0810.9,5.00,000.00,020.1,019.4,000.0,028.4,021.7,13.0,0000.0,0002.37,0000.35,0000.19
2024-02-08 00:59:00,SystemResetWarning,0810.9,5.00,000.00,020.1,019.4,000.0,028.4,021.7,12.9,0000.0,0002.53,0000.37,0000.21
